Regional Weather Roundup
Issued by NWS Green Bay, WI

Home | Current Version | Previous Version | Text Only | Print | Product List | Glossary On
Versions: 1 2 3 4 5 6 7 8 9 10 11 12 13 14 15 16 17 18 19 20 21 22 23 24 25 26 27 28 29 30 31 32 33 34 35 36 37 38 39 40 41 42 43 44 45 46 47 48 49 50
000
ASUS43 KGRB 171501
RWRGRB

NORTH-CENTRAL AND NORTHEAST WISCONSIN REGIONAL WEATHER ROUNDUP
NATIONAL WEATHER SERVICE GREEN BAY WI
1000 AM CDT THU AUG 17 2017

WIZ005-009-010>012-018-019-171600-
NORTH CENTRAL WISCONSIN

CITY           SKY/WX    TMP DP  RH WIND       PRES   REMARKS
IRONWOOD       CLOUDY    69  66  90 SE5       29.59F
MANITOWISH WTR NOT AVBL
ARBOR VITAE    NOT AVBL
EAGLE RIVER    NOT AVBL
LAND O LAKES   CLOUDY    69  68  99 SE6       29.64F FOG
RHINELANDER    LGT RAIN  66  66 100 SW13G18   29.62F FOG
PHILLIPS       CLOUDY    66  66  99 S8        29.58F
ANTIGO         NOT AVBL
TOMAHAWK       NOT AVBL
MERRILL        NOT AVBL
$$

WIZ013-073-171600-
NORTHEAST WISCONSIN

CITY           SKY/WX    TMP DP  RH WIND       PRES   REMARKS
IRON MOUNTAIN  CLOUDY    70  67  90 SE5       29.62F FOG
MARINETTE      CLOUDY    72  69  90 S12       29.66R
$$

WIZ017-030-035>037-045-171600-
CENTRAL WISCONSIN

CITY           SKY/WX    TMP DP  RH WIND       PRES   REMARKS
MEDFORD        NOT AVBL
WAUSAU         CLOUDY    69  64  84 S13G22    29.61S
MOSINEE        CLOUDY    68  64  88 S12       29.64R
MARSHFIELD     LGT RAIN  67  63  87 S13       29.60F
WISC RAPIDS    CLOUDY    70  64  81 S14G22    29.64F
STEVENS POINT  NOT AVBL
WAUPACA        NOT AVBL
SHAWANO        CLOUDY    79  68  68 SW7G17    29.63S
CLINTONVILLE   CLOUDY    73  64  73 S18G25    29.63F
WAUTOMA        CLOUDY    71  65  81 SW17      29.66S
$$

WIZ038-039-048-051-171600-
FOX VALLEY

CITY           SKY/WX    TMP DP  RH WIND       PRES   REMARKS
NWS GREEN BAY  PTSUNNY   76  71  85 S13G25    29.65F
APPLETON       PTSUNNY   77  68  73 S16G25    29.65S
OSHKOSH        MOSUNNY   76  68  76 S17G23    29.66F
FOND DU LAC    MOSUNNY   77  66  68 SW17G24   29.67F
$$

WIZ022-050-052-171600-
EAST CENTRAL WISCONSIN

CITY           SKY/WX    TMP DP  RH WIND       PRES   REMARKS
EPHRAIM        NOT AVBL
WASHINGTON ISL NOT AVBL
STURGEON BAY   CLOUDY    70  67  90 S13       29.68S
MANITOWOC      NOT AVBL
SHEBOYGAN      CLOUDY    76  73  91 S9        29.70S
$$

LMZ563-521-522-541>543-171600-
LAKESHORE

STATION/POSITION TIME  TEMP    WIND        PRES    VSBY  WAVE
                       AIR SEA DIR/SP/G                  HT/PER
                 (UTC) (F)     (DEG/KT/KT) (MB)    (MI)  (FT/S)
SHEBOYGAN LKSHOR 1400   71     180/ 20/ 22 1005.0S
KEWAUNEE LKSHORE 1430   70     150/ 12/ 13 1004.5S
NORTHPORT PIER   1440   70     160/ 10/ 16 1004.7S
N MID LAKE BUOY  1350   68 67  150/ 17/ 21 1005.4F         4/ 5
S GREEN BAY BUOY 1400   72 71  170/ 14/ 16 1004.0
SISTER BAY LKSHO 1418   71     170/ 17/ 21   N/A
MENOMINEE LKSHOR 1430   72     160/ 15/ 18 1004.0R
$$




USA.gov is the U.S. government's official web portal to all federal, state and local government web resources and services.